[Iaude] MPEC A136: 2023 WF37 [a=1.09,e=0.53,i=10.9,H=22.0]

mpec at marsden.cfa.harvard.edu mpec at marsden.cfa.harvard.edu
Thu Jan 11 20:16:00 EST 2024


M.P.E.C. 2024-A136                             Issued 2024 January 12, 01:13 UT

     The Minor Planet Electronic Circulars contain information on unusual
         minor planets, routine data on comets and natural satellites,
         and occasional editorial announcements.  They are published
    on behalf of Division F of the International Astronomical Union by the
          Minor Planet Center, Smithsonian Astrophysical Observatory,
                          Cambridge, MA 02138, U.S.A.
			  
             Prepared using the Tamkin Foundation Computer Network

                              MPC at CFA.HARVARD.EDU
            URL https://www.minorplanetcenter.net/    ISSN 1523-6714

                                   2023 WF37                                    


Observations:
     K23W37F* C2023 11 17.83979 04 47 51.44 +20 58 06.1          21.5 wVEA136O18
     K23W37F  C2023 11 17.84087 04 47 51.28 +20 58 04.4          21.2 wVEA136O18
     K23W37F  C2023 11 17.84624 04 47 50.40 +20 57 58.6          21.9 wVEA136O18
     K23W37F  C2023 11 17.84730 04 47 50.22 +20 57 57.2          21.9 wVEA136O18
     K23W37F  C2023 11 17.85266 04 47 49.35 +20 57 51.1          21.8 wVEA136O18
     K23W37F  C2023 11 17.85373 04 47 49.18 +20 57 49.9          21.9 wVEA136O18
     K23W37F  C2023 11 19.85586 04 42 23.35 +20 17 28.6          21.7 wVEA136O18
     K23W37F  C2023 11 19.86241 04 42 22.21 +20 17 20.4          21.9 wVEA136O18
     K23W37F  C2023 11 19.86895 04 42 21.07 +20 17 12.1          21.3 wVEA136O18
     K23W37F  C2023 12 04.47400303 52 02.521+13 42 38.15         21.06GVEA136F51
     K23W37F  C2023 12 17.29810303 02 21.212+06 24 38.55         21.79GVEA136F52
     K23W37F  C2023 12 17.32028303 02 16.179+06 23 53.50         21.54GVEA136F52
     K23W37F  C2023 12 31.22505502 19 09.513-00 34 28.95         21.82GVEA136F51
     K23W37F  C2023 12 31.23573302 19 07.811-00 34 45.47         21.94GVEA136F51
     K23W37F  C2023 12 31.24669802 19 06.051-00 35 02.42         21.93GVEA136F51
     K23W37F  C2023 12 31.25726002 19 04.384-00 35 18.54         22.20GVEA136F51
     K23W37F  C2024 01 04.23429102 09 43.883-02 12 01.84         22.25wXEA136F52
     K23W37F  C2024 01 04.24598502 09 42.245-02 12 17.91         22.11wXEA136F52
     K23W37F  C2024 01 04.25771302 09 40.592-02 12 34.27         22.48wXEA136F52
     K23W37F  C2024 01 04.37124102 09 24.861-02 15 10.58         22.16GVEA136F51
     K23W37F  C2024 01 04.37205702 09 24.743-02 15 11.83         22.29GVEA136F51

Observer details:
F51 Pan-STARRS 1, Haleakala.  Observers J. Herman, T. Lowe, P. Minguez, A.
    Schultz, I. Smith.  Measurers K. Chambers, T. de Boer, J. Fairlamb, H.
    Gao, M. Huber, C.-C. Lin, E. Magnier, Y. Ramanjooloo, R. Wainscoat, R.
    Weryk.  1.8-m Ritchey-Chretien + CCD.
F52 Pan-STARRS 2, Haleakala.  Observers J. Herman, T. Lowe, P. Minguez, A.
    Schultz, I. Smith.  Measurers K. Chambers, T. de Boer, J. Fairlamb, H.
    Gao, M. Huber, C.-C. Lin, E. Magnier, Y. Ramanjooloo, R. Wainscoat, R.
    Weryk.  1.8-m Ritchey-Chretien + CCD.
O18 WFST, Lenghu.  Observers Z. Y. Liu, S. X. Li, Z. Q. Li, K. Yan, J. Z. Zhu,
    N. Jiang.  Measurers B. Li, H. B. Zhao, Z. J. Xu, G. T. Zhaori.  2.5-m
    f/2.48 reflector + CCD.

Orbital elements:
2023 WF37                                                Earth MOID = 0.1206 AU
Epoch 2023 Sept. 13.0 TT = JDT 2460200.5                Veres                   
M 196.87595              (2000.0)            P               Q                  
n   0.86147022     Peri.  333.56653     -0.84089191     +0.51664353             
a   1.0938956      Node   238.46697     -0.45701435     -0.83739012             
e   0.5325948      Incl.   10.90072     -0.28989426     -0.17848601             
P   1.14           H   22.01          G   0.15           U   6                  
Residuals in seconds of arc
231117 O18  0.0   0.2-    231119 O18  0.1+  0.0     231231 F51  0.2-  0.1-
231117 O18  0.2+  0.6-    231119 O18  0.1+  0.1+    231231 F51  0.1+  0.0
231117 O18  0.1+  0.1-    231204 F51  0.0   0.1-    240104 F52  0.1-  0.1-
231117 O18  0.0   0.3-    231217 F52  0.2-  0.1+    240104 F52  0.0   0.0
231117 O18  0.0   0.1-    231217 F52  0.2+  0.0     240104 F52  0.1-  0.1-
231117 O18  0.0   0.0     231231 F51  0.1-  0.1+    240104 F51  0.2+  0.0
231119 O18  0.0   0.1-    231231 F51  0.1-  0.0     240104 F51  0.1+  0.1-

Ephemeris:
2023 WF37                a,e,i = 1.09, 0.53, 11                  q = 0.5113
Date    TT    R. A. (2000) Decl.     Delta      r    Elong.  Phase     V
2023 12 13    03 18 32.3 +08 52 32   0.3776  1.3202   148.1    23.2    21.6
...
2023 12 28    02 27 42.4 +00 51 52   0.3810  1.2120   118.4    45.5    22.1
...
2024 01 05    02 08 04.6 -02 29 20   0.3932  1.1478   104.7    56.0    22.3
...
2024 01 11    01 56 31.7 -04 34 55   0.4028  1.0966    95.3    63.2    22.5
2024 01 12    01 54 49.3 -04 54 07   0.4042  1.0878    93.8    64.4    22.5
2024 01 13    01 53 10.2 -05 12 54   0.4057  1.0790    92.3    65.6    22.5
...
2024 01 19    01 44 08.8 -06 58 42   0.4128  1.0245    83.7    72.7    22.7
...
2024 01 27    01 33 10.6 -09 10 30   0.4170  0.9482    72.7    82.5    22.9
...
2024 02 11    01 05 58.9 -13 35 46   0.4079  0.7963    51.0   105.5    23.5

M. P. C. Staff               (C) Copyright 2024 MPC           M.P.E.C. 2024-A136





More information about the Iaude mailing list